Tracking 20093 objects as of 16-Dec-2019
HD Live streaming from Space Station
objects crossing your sky now

MICROMAS 2A

Track MICROMAS 2A now!
10-day predictions
MICROMAS 2A is classified as:


NORAD ID: 43131
Int'l Code: 2018-004W
Perigee: 492.9 km
Apogee: 505.1 km
Inclination: 97.5 °
Period: 94.4 minutes
Semi major axis: 6869 km
RCS: Unknown
Launch date: January 12, 2018
Source: United States (US)
Launch site: SRIHARIKOTA (SRI)

MICROMAS 2A is a 3U cubesat from MIT Lincoln Lab, designed for microwave radiometry of tropical weather.
aabbcc
Your satellite tracking list
Your tracking list is empty




NASA's NSSDC Master Catalog

Two Line Element Set (TLE):
1 43131U 18004W   19349.01655913  .00001473  00000-0  62560-4 0  9999
2 43131  97.4711  56.7397 0008874 353.8595   6.2532 15.24645264106830
Source of the keplerian elements: AFSPC